sat.trackr.live / text

‹ back to catalog

STARLINK-3261

NORAD 50193 · 2021-125AP

PAYLOAD ACTIVE UNKNOWN

§ Identity

Operator
Country
US
Launch date
2021-12-18
Launch site
AFWTR
Launch vehicle
Mass (kg)
RCS (m²)

Purposes: comms

External: N2YO · Heavens-Above · Gunter

§ Orbital elements

Epoch: 2026-09-08T22:05:06.195840Z

Period
94.01 min
Inclination
53.1592°
Eccentricity
0.0001441
Mean motion
15.31701933 rev/d
Perigee alt
469.7 km
Apogee alt
471.7 km
Semi-major
6,848.9 km
B*
2.6576e-5
RAAN
126.7505°
Arg perigee
94.5250°
Mean anomaly
265.5916°
Rev number
26,457

§ Raw data

STARLINK-32611 50193U 21125AP  26251.92021060  .00000460  00000+0  26576-4 0  99942 50193  53.1592 126.7505 0001441  94.5250 265.5916 15.31701933264577

JSON: /api/v1/satellites/50193 · /tle

For live sub-satellite position, see the globe view (requires WebGL).

§ Visibility from observer

Set your observer location to see the next 7 days of passes ≥ 10°. The values pass through the URL so the page stays shareable.

No JS? Fill the form by hand. The geolocation button needs JavaScript.